Location: Cherry Springs State Park
(41.6616°N, 77.8240°W)
Time: 03:50:46
(UTC-04:00)

Amateur Radio Satellites - All Passes

Search period start: 24 April 2014 03:20
Search period end: 25 April 2014 03:20
Location: Cherry Springs State Park, 41.6616°N, 77.8240°W

Satellite Date Start Highest point End Downlink Frequencies (MHz)
Time Altitude Azimuth
UOSAT-12 24 Apr 03:27:40 03:29:25 12° 253° (WSW) 03:31:09 437.025 FM, 437.400 FM
KITSAT 1 24 Apr 03:27:50 03:35:47 57° 307° (NW) 03:43:48 435.175 FM
AO-27 24 Apr 03:33:24 03:38:36 86° 285° (WNW) 03:43:47 436.795 MHz FM
Oscar 19 24 Apr 03:36:41 03:41:36 43° 290° (WNW) 03:46:29 437.125 CW, 437.150 USB
OPAL 24 Apr 03:37:32 03:42:19 43° 259° (W) 03:47:12 ?
ITAMSAT 1 24 Apr 03:42:49 03:47:59 72° 286° (WNW) 03:53:08 435.822 SSB
Oscar 16 24 Apr 03:46:04 03:50:43 34° 292° (WNW) 03:55:21 437.025 USB, Beacon 2401.1428
Gurwin Techsat 1B 24 Apr 03:53:39 03:58:47 47° 99° (E) 04:03:52 435.225 FM
JAS-1B 24 Apr 04:19:12 04:24:08 29° 97° (E) 04:29:21 435.800 - 435.900 CW/SSB
Uribyol 2 24 Apr 04:30:40 04:34:55 26° 295° (WNW) 04:39:09 436.500 FM
TMSAT-1 24 Apr 04:38:32 04:43:51 87° 104° (ESE) 04:49:09 436.925 FM
AO-7 24 Apr 04:38:35 04:45:19 27° 94° (E) 04:52:02 29.400 - 29.500 MHz
AO-Echo 24 Apr 04:39:29 04:43:15 24° 294° (WNW) 04:46:59 ?
Uosat F 24 Apr 05:01:22 05:06:15 51° 100° (E) 05:11:06 435.120 FM
AO-40 24 Apr 05:06:49 10:26:55 36° 180° (S) 16:42:40 Beacon 2401.320
AO-27 24 Apr 05:15:32 05:17:19 12° 302° (WNW) 05:19:05 436.795 MHz FM
MaSat-1 24 Apr 05:16:08 05:17:16 11° 56° (NE) 05:18:26 437.345 MHz
RS-15 24 Apr 05:22:07 05:31:35 32° 105° (ESE) 05:40:46 29.354 - 29.394 USB, Beacon 29.352 USB
KITSAT 1 24 Apr 05:27:51 05:33:10 18° 332° (NNW) 05:38:31 435.175 FM
Gurwin Techsat 1B 24 Apr 05:34:20 05:38:25 23° 296° (WNW) 05:42:31 435.225 FM
JAS-1B 24 Apr 06:09:46 06:14:55 37° 293° (WNW) 06:20:20 435.800 - 435.900 CW/SSB
Hamsat 24 Apr 06:09:56 06:10:43 10° 89° (E) 06:11:31 145.90 MHz
TMSAT-1 24 Apr 06:20:38 06:23:01 13° 301° (WNW) 06:25:24 436.925 FM
STRAND 1 24 Apr 06:23:55 06:28:38 39° 69° (ENE) 06:33:21 ?
AO-7 24 Apr 06:30:26 06:38:40 68° 293° (WNW) 06:46:55 29.400 - 29.500 MHz
Uosat F 24 Apr 06:41:06 06:44:40 20° 297° (WNW) 06:48:12 435.120 FM
MaSat-1 24 Apr 06:52:40 06:55:40 41° 247° (WSW) 06:59:12 437.345 MHz
Sapphire 24 Apr 07:10:51 07:12:43 12° 35° (NE) 07:14:36 437.095 MHz 1200 baud AX-25 AFSK
JAS-2 24 Apr 07:23:34 07:28:13 26° 96° (E) 07:33:16 435.800 - 435.900 CW/SSB, 435.910 FM
KITSAT 1 24 Apr 07:30:20 07:32:42 11° 3° (N) 07:35:04 435.175 FM
RS-15 24 Apr 07:31:45 07:43:02 72° 306° (NW) 07:54:02 29.354 - 29.394 USB, Beacon 29.352 USB
Hamsat 24 Apr 07:42:49 07:47:10 70° 285° (WNW) 07:51:31 145.90 MHz
PCSat 24 Apr 07:53:43 07:58:00 23° 46° (NE) 08:02:15 145.825 MHz
STRAND 1 24 Apr 08:03:45 08:07:55 25° 265° (W) 08:12:06 ?
PANSAT 24 Apr 08:16:27 08:17:50 12° 178° (S) 08:19:11 not established
AO-7 24 Apr 08:25:20 08:29:58 16° 313° (NW) 08:34:37 29.400 - 29.500 MHz
SO-67 24 Apr 08:51:15 08:54:40 50° 285° (WNW) 08:58:03 435.3500 MHz FM
Sapphire 24 Apr 08:52:02 08:57:23 56° 57° (ENE) 09:02:41 437.095 MHz 1200 baud AX-25 AFSK
JAS-2 24 Apr 09:08:13 09:13:26 45° 290° (WNW) 09:19:13 435.800 - 435.900 CW/SSB, 435.910 FM
HO-68 24 Apr 09:14:07 09:19:26 22° 92° (E) 09:24:43 435.675 MHz FM
KITSAT 1 24 Apr 09:25:51 09:31:56 22° 33° (NNE) 09:37:58 435.175 FM
PCSat 24 Apr 09:36:29 09:41:50 61° 245° (WSW) 09:47:08 145.825 MHz
RS-15 24 Apr 09:48:43 09:57:43 27° 335° (NNW) 10:06:40 29.354 - 29.394 USB, Beacon 29.352 USB
Saudisat 1A 24 Apr 10:18:09 10:22:35 72° 121° (ESE) 10:27:03 436.775 MHz
Sapphire 24 Apr 10:36:26 10:40:21 21° 254° (WSW) 10:44:16 437.095 MHz 1200 baud AX-25 AFSK
HO-68 24 Apr 11:00:33 11:07:43 71° 290° (WNW) 11:14:50 435.675 MHz FM
Oscar 11 24 Apr 11:11:10 11:15:33 83° 284° (WNW) 11:19:55 145.825 FM, Beacon 2401.500 USB
FUNcube-1 24 Apr 11:16:58 11:20:57 35° 98° (E) 11:25:00 145.950 - 145.970 MHz USB
KITSAT 1 24 Apr 11:20:40 11:28:48 75° 57° (ENE) 11:36:51 435.175 FM
Oscar 10/S400 24 Apr 11:28:19 13:06:56 45° 244° (WSW) 18:26:37 145.825 - 145.975 CW/USB, Beacon 145.810 USB
Saudisat 1A 24 Apr 11:59:44 12:02:41 17° 319° (NW) 12:05:39 436.775 MHz
RS-15 24 Apr 12:07:16 12:15:13 22° 11° (N) 12:23:11 29.354 - 29.394 USB, Beacon 29.352 USB
HO-68 24 Apr 12:50:35 12:54:10 15° 309° (NW) 12:57:45 435.675 MHz FM
FUNcube-1 24 Apr 12:53:56 12:57:10 21° 293° (WNW) 13:00:27 145.950 - 145.970 MHz USB
AO-27 24 Apr 13:14:22 13:18:00 20° 62° (ENE) 13:21:37 436.795 MHz FM
Oscar 19 24 Apr 13:14:59 13:19:36 34° 68° (ENE) 13:24:14 437.125 CW, 437.150 USB
KITSAT 1 24 Apr 13:17:16 13:23:23 24° 256° (WSW) 13:29:29 435.175 FM
ISS 24 Apr 13:22:27 13:25:22 29° 136° (SE) 13:28:18 145.800 FM
ITAMSAT 1 24 Apr 13:23:13 13:27:11 23° 64° (ENE) 13:31:09 435.822 SSB
Oscar 16 24 Apr 13:23:56 13:28:48 44° 70° (ENE) 13:33:42 437.025 USB, Beacon 2401.1428
Gurwin Techsat 1B 24 Apr 13:40:07 13:41:10 11° 57° (ENE) 13:42:13 435.225 FM
SO-50 24 Apr 14:05:10 14:09:00 28° 114° (ESE) 14:12:52 436.795 FM
Uribyol 2 24 Apr 14:08:52 14:13:56 62° 72° (ENE) 14:19:02 436.500 FM
AO-Echo 24 Apr 14:13:00 14:18:00 51° 72° (ENE) 14:22:52 ?
RS-15 24 Apr 14:20:53 14:31:20 47° 43° (NE) 14:41:55 29.354 - 29.394 USB, Beacon 29.352 USB
TMSAT-1 24 Apr 14:21:54 14:25:29 19° 62° (ENE) 14:29:04 436.925 FM
AO-27 24 Apr 14:52:00 14:57:05 56° 259° (W) 15:02:11 436.795 MHz FM
Oscar 19 24 Apr 14:54:30 14:58:56 29° 265° (W) 15:03:26 437.125 CW, 437.150 USB
ISS 24 Apr 14:58:53 15:02:01 37° 333° (NNW) 15:05:10 145.800 FM
ITAMSAT 1 24 Apr 15:01:24 15:06:22 46° 261° (W) 15:11:21 435.822 SSB
Oscar 16 24 Apr 15:04:22 15:08:20 22° 267° (W) 15:12:21 437.025 USB, Beacon 2401.1428
JAS-1B 24 Apr 15:04:34 15:10:57 32° 66° (ENE) 15:16:31 435.800 - 435.900 CW/SSB
Gurwin Techsat 1B 24 Apr 15:14:56 15:20:13 76° 74° (ENE) 15:25:32 435.225 FM
AO-7 24 Apr 15:37:47 15:45:12 39° 60° (ENE) 15:52:39 29.400 - 29.500 MHz
SO-50 24 Apr 15:45:24 15:49:28 33° 312° (NW) 15:53:35 436.795 FM
OPAL 24 Apr 15:46:52 15:51:56 49° 102° (ESE) 15:56:57 ?
Uribyol 2 24 Apr 15:50:42 15:53:49 16° 269° (W) 15:56:57 436.500 FM
AO-Echo 24 Apr 15:53:19 15:57:00 19° 267° (W) 16:00:38 ?
UOSAT-12 24 Apr 15:57:37 16:01:08 22° 111° (ESE) 16:04:42 437.025 FM, 437.400 FM
TMSAT-1 24 Apr 15:59:42 16:04:55 60° 259° (W) 16:10:10 436.925 FM
Uosat F 24 Apr 16:14:47 16:19:47 73° 74° (ENE) 16:24:48 435.120 FM
RS-15 24 Apr 16:33:23 16:43:58 58° 247° (WSW) 16:54:52 29.354 - 29.394 USB, Beacon 29.352 USB
ISS 24 Apr 16:37:17 16:39:26 16° 353° (N) 16:41:35 145.800 FM
JAS-1B 24 Apr 16:53:59 17:01:27 48° 260° (W) 17:07:46 435.800 - 435.900 CW/SSB
Gurwin Techsat 1B 24 Apr 16:58:14 17:00:45 13° 271° (W) 17:03:16 435.225 FM
Saudisat 1A 24 Apr 17:07:46 17:08:46 11° 34° (NE) 17:09:46 436.775 MHz
OPAL 24 Apr 17:26:28 17:30:29 23° 299° (WNW) 17:34:29 ?
AO-7 24 Apr 17:29:49 17:37:46 50° 259° (WSW) 17:45:47 29.400 - 29.500 MHz
UOSAT-12 24 Apr 17:36:38 17:41:00 43° 309° (NW) 17:45:28 437.025 FM, 437.400 FM
Uosat F 24 Apr 17:56:53 17:59:06 13° 270° (W) 18:01:18 435.120 FM
ISS 24 Apr 18:14:43 18:17:07 18° 13° (NNE) 18:19:32 145.800 FM
STRAND 1 24 Apr 18:36:13 18:38:18 12° 89° (E) 18:40:22 ?
Hamsat 24 Apr 18:36:16 18:40:29 84° 76° (ENE) 18:44:47 145.90 MHz
Saudisat 1A 24 Apr 18:44:56 18:49:19 60° 54° (NE) 18:53:38 436.775 MHz
JAS-2 24 Apr 19:20:46 19:26:23 78° 75° (ENE) 19:31:37 435.800 - 435.900 CW/SSB, 435.910 FM
SO-67 24 Apr 19:24:54 19:28:17 50° 75° (ENE) 19:31:42 435.3500 MHz FM
HO-68 24 Apr 19:44:27 19:49:03 19° 54° (NE) 19:53:39 435.675 MHz FM
ISS 24 Apr 19:51:02 19:54:22 60° 32° (NNE) 19:57:41 145.800 FM
STRAND 1 24 Apr 20:12:56 20:18:03 77° 286° (WNW) 20:23:08 ?
Saudisat 1A 24 Apr 20:26:00 20:28:24 15° 251° (WSW) 20:30:48 436.775 MHz
MaSat-1 24 Apr 20:55:54 20:58:41 85° 295° (WNW) 21:01:13 437.345 MHz
JAS-2 24 Apr 21:09:59 21:12:02 12° 270° (W) 21:14:03 435.800 - 435.900 CW/SSB, 435.910 FM
ISS 24 Apr 21:28:34 21:30:46 17° 228° (SW) 21:32:58 145.800 FM
HO-68 24 Apr 21:28:39 21:35:48 89° 73° (ENE) 21:43:00 435.675 MHz FM
STRAND 1 24 Apr 21:55:56 21:56:21 10° 303° (WNW) 21:56:46 ?
Oscar 11 24 Apr 22:06:15 22:10:33 79° 76° (ENE) 22:14:54 145.825 FM, Beacon 2401.500 USB
FUNcube-1 24 Apr 22:14:17 22:17:53 29° 69° (ENE) 22:21:29 145.950 - 145.970 MHz USB
SO-50 24 Apr 22:36:04 22:40:12 31° 48° (NE) 22:44:23 436.795 FM
PCSat 24 Apr 22:37:23 22:40:42 17° 104° (ESE) 22:44:02 145.825 MHz
HO-68 24 Apr 23:20:17 23:24:22 16° 271° (W) 23:28:29 435.675 MHz FM
Sapphire 24 Apr 23:34:02 23:39:13 49° 113° (ESE) 23:44:26 437.095 MHz 1200 baud AX-25 AFSK
FUNcube-1 24 Apr 23:51:01 23:54:19 23° 265° (W) 23:57:38 145.950 - 145.970 MHz USB
SO-50 25 Apr 00:16:35 00:20:47 34° 245° (WSW) 00:25:02 436.795 FM
PCSat 25 Apr 00:18:08 00:23:31 68° 302° (WNW) 00:28:56 145.825 MHz
UOSAT-12 25 Apr 00:26:14 00:30:08 25° 44° (NE) 00:34:00 437.025 FM, 437.400 FM
Sapphire 25 Apr 01:18:20 01:22:53 27° 312° (NW) 01:27:28 437.095 MHz 1200 baud AX-25 AFSK
OPAL 25 Apr 01:26:58 01:29:00 12° 55° (NE) 01:31:03 ?
Oscar 19 25 Apr 01:28:33 01:30:13 11° 88° (E) 01:31:53 437.125 CW, 437.150 USB
Oscar 16 25 Apr 01:36:44 01:39:46 15° 91° (E) 01:42:47 437.025 USB, Beacon 2401.1428
KITSAT 1 25 Apr 01:48:53 01:56:36 51° 112° (ESE) 02:04:21 435.175 FM
PCSat 25 Apr 02:05:20 02:07:59 14° 322° (NW) 02:10:38 145.825 MHz
UOSAT-12 25 Apr 02:05:58 02:10:30 47° 243° (WSW) 02:14:59 437.025 FM, 437.400 FM
AO-Echo 25 Apr 02:21:43 02:24:16 14° 91° (E) 02:26:48 ?
Uribyol 2 25 Apr 02:22:10 02:26:06 22° 93° (E) 02:30:01 436.500 FM
OPAL 25 Apr 03:02:01 03:07:05 88° 73° (ENE) 03:12:15 ?
AO-27 25 Apr 03:04:45 03:09:49 52° 100° (E) 03:14:51 436.795 MHz FM
Oscar 19 25 Apr 03:04:58 03:10:12 84° 285° (WNW) 03:15:23 437.125 CW, 437.150 USB
